Location: Ar Ranvel
(48.3000°N, 4.8833°W)
Time: 04:41:40
(UTC+00:00)

Cosmos 2322 Rocket - Pass Details

Date: 25 October 2021
Orbit: 832 x 851 km, 71.0° (Epoch: 01 December)

Event Time Altitude Azimuth Distance (km) Brightness Sun altitude
Rises 21:18:51 0° 277° (W) 3,380 6.1 -40.5°
Reaches altitude 10° 21:23:03 10° 307° (NW) 2,453 5.3 -41.1°
Maximum altitude 21:25:13 12° 330° (NNW) 2,304 5.0 -41.4°
Drops below altitude 10° 21:27:25 10° 354° (N) 2,460 5.0 -41.7°
Enters shadow 21:27:31 10° 355° (N) 2,475 5.0 -41.7°
